Date,TemperatureHighF,TemperatureAvgF,TemperatureLowF,DewpointHighF,DewpointAvgF,DewpointLowF,HumidityHigh,HumidityAvg,HumidityLow,PressureMaxIn,PressureMinIn,WindSpeedMaxMPH,WindSpeedAvgMPH,GustSpeedMaxMPH,PrecipitationSumIn
2014-1-1,2,-6,-12,-2,-12,-17,86,73,59,30.53,30.25,16,4,20,0.00
2014-1-2,-2,-8,-13,-10,-13,-17,85,77,63,30.48,30.37,19,4,19,0.00
2014-1-3,18,1,-21,12,-3,-26,90,83,69,30.42,29.85,42,6,42,0.00
2014-1-4,29,23,18,26,18,10,89,80,67,30.00,29.64,44,13,44,0.00
2014-1-5,20,17,11,15,12,8,90,82,74,30.13,29.77,20,8,20,0.00
2014-1-6,11,2,-4,8,-2,-10,89,82,72,29.78,29.67,27,12,27,0.00
2014-1-7,6,1,-5,-1,-5,-11,82,75,67,30.10,29.75,43,22,43,0.00
2014-1-8,15,10,3,8,5,-1,86,80,73,30.39,30.09,30,15,30,0.00
2014-1-9,18,12,4,13,8,0,92,81,73,30.52,30.23,21,5,24,0.00
2014-1-10,34,26,12,34,24,9,97,91,83,30.23,29.59,18,3,18,0.24
2014-1-11,38,34,32,37,33,29,98,95,88,29.59,29.16,34,12,34,0.35
2014-1-12,36,33,31,30,29,26,90,84,79,29.70,29.41,26,12,31,0.00
2014-1-13,37,34,29,35,31,23,97,88,77,29.57,29.39,23,10,23,0.13
2014-1-14,30,28,24,25,23,20,96,82,70,29.74,29.57,21,8,21,0.00
2014-1-15,24,14,8,23,11,5,96,88,80,29.89,29.60,22,8,22,0.00
2014-1-16,26,22,19,24,20,14,94,91,81,29.78,29.58,31,8,31,0.00
2014-1-17,29,25,18,27,23,16,97,94,89,29.78,29.60,17,4,17,0.00
2014-1-18,19,14,11,16,12,8,92,89,83,29.86,29.65,14,4,14,0.00
2014-1-19,25,20,9,22,16,2,95,83,61,29.65,29.28,42,16,42,0.00
2014-1-20,9,-2,-7,3,-9,-13,79,71,54,30.19,29.57,18,6,18,0.00
2014-1-21,-5,-12,-18,-11,-17,-23,85,77,68,30.32,30.19,10,1,10,0.00
2014-1-22,1,-2,-15,-3,-6,-19,86,84,78,30.22,29.97,32,10,32,0.00
2014-1-23,0,-3,-7,-3,-9,-13,86,77,65,30.45,30.11,22,7,26,0.00
2014-1-24,21,12,-7,19,9,-11,94,88,75,30.33,29.20,45,14,45,0.00
2014-1-25,21,7,-4,19,1,-11,94,78,56,29.63,29.12,38,14,38,0.00
2014-1-26,4,-2,-11,2,-6,-15,89,85,80,29.64,29.34,24,8,24,0.00
2014-1-27,4,-3,-12,1,-8,-17,89,77,63,30.06,29.38,34,13,34,0.00
2014-1-28,6,0,-8,4,-5,-13,89,81,71,30.11,29.84,35,18,35,0.00
2014-1-29,17,9,4,12,5,1,89,84,73,29.97,29.78,37,17,37,0.00
2014-1-30,27,23,17,24,18,12,94,81,64,29.91,29.52,34,12,34,0.00
2014-1-31,17,14,12,13,9,6,87,81,74,30.10,29.67,28,11,28,0.00
2014-2-1,20,17,14,16,14,11,94,88,83,30.11,29.93,16,2,16,0.00
2014-2-2,18,12,3,14,9,0,93,86,73,30.25,29.96,21,7,21,0.00
2014-2-3,17,8,-5,12,3,-9,90,81,65,30.32,30.25,25,4,25,0.00
2014-2-4,20,15,8,15,10,5,92,81,68,30.43,30.30,13,2,13,0.00
2014-2-5,15,8,3,6,2,0,85,77,62,30.35,30.19,23,7,23,0.00
2014-2-6,12,8,2,8,4,-1,87,83,73,30.32,30.07,31,14,31,0.00
2014-2-7,15,11,5,12,7,2,91,84,73,30.09,30.00,44,19,44,0.00
2014-2-8,17,9,2,10,3,-4,85,74,65,30.20,30.09,22,6,25,0.00
2014-2-9,18,8,-1,8,2,-4,90,80,62,30.17,30.03,19,4,19,0.00
2014-2-10,8,3,-3,2,-2,-5,88,78,60,30.41,30.16,19,9,19,0.00
2014-2-11,-2,-3,-5,-5,-6,-8,87,86,85,30.42,30.40,8,5,9,0.00
2014-2-12,20,15,11,17,12,5,93,85,77,30.37,30.05,13,8,35,0.00
2014-2-13,23,20,16,20,17,14,94,90,83,30.05,29.57,12,5,29,0.00
2014-2-14,23,19,12,21,16,8,94,90,85,29.81,29.49,19,8,25,0.00
2014-2-15,14,5,-4,8,0,-9,90,78,61,30.07,29.81,15,3,15,0.00
2014-2-16,14,8,-3,8,2,-7,90,75,54,30.39,30.03,16,5,16,0.00
2014-2-17,18,8,-6,12,2,-9,90,78,63,30.43,29.84,35,9,35,0.00
2014-2-18,26,19,14,22,16,12,94,87,71,29.85,29.59,15,5,22,0.00
2014-2-19,35,24,11,28,21,9,96,88,76,29.92,29.56,20,5,20,0.00
2014-2-20,33,26,16,32,23,14,96,88,80,29.99,29.44,36,10,36,0.08
2014-2-21,37,30,20,36,28,18,98,92,82,29.44,29.12,50,19,50,0.70
2014-2-22,21,18,14,18,13,9,91,83,72,29.79,29.41,48,23,48,0.00
2014-2-23,18,13,8,11,7,3,90,78,70,29.95,29.79,37,19,37,0.00
2014-2-24,12,8,5,6,3,0,88,81,69,30.12,29.93,23,13,23,0.00
2014-2-25,14,7,-1,10,4,-5,91,85,75,30.12,29.92,27,11,27,0.00
2014-2-26,11,3,-8,8,-2,-12,89,79,66,29.99,29.45,37,14,37,0.00
2014-2-27,6,-4,-12,1,-10,-17,83,75,67,30.24,29.45,35,17,35,0.00
2014-2-28,12,-2,-21,9,-8,-26,89,75,59,30.36,30.07,25,5,25,0.00
2014-3-1,14,6,-4,11,0,-10,88,75,62,30.37,30.00,31,15,31,0.00
2014-3-2,6,-3,-10,-5,-10,-14,85,75,58,30.41,30.28,22,8,22,0.00
2014-3-3,9,-1,-14,4,-7,-18,86,76,56,30.49,30.33,27,8,27,0.00
2014-3-4,18,11,4,11,6,1,89,82,72,30.33,30.20,15,2,15,0.57
2014-3-5,20,9,0,3,-1,-6,89,65,35,30.62,30.29,24,4,24,0.00
2014-3-6,22,10,-11,13,4,-14,85,74,57,30.62,30.13,27,6,29,0.00
2014-3-7,31,23,14,26,18,10,95,82,65,30.13,29.83,21,3,22,0.00
2014-3-8,24,17,6,21,12,2,90,78,63,30.19,29.96,19,7,19,0.74
2014-3-9,32,18,2,27,13,-1,91,79,57,30.15,29.64,26,6,26,0.00
2014-3-10,40,35,28,34,30,26,93,83,72,29.64,29.37,24,7,24,0.01
2014-3-11,38,32,25,32,27,21,93,83,67,29.82,29.50,32,9,32,0.00
2014-3-12,27,11,1,22,0,-8,81,63,34,30.09,29.82,22,10,24,0.00
2014-3-13,26,9,-8,18,2,-11,88,76,56,30.10,29.77,20,3,20,0.00
2014-3-14,40,32,26,34,28,18,97,87,73,29.77,29.34,21,5,21,0.07
2014-3-15,32,18,6,32,14,2,98,83,67,30.38,29.53,26,14,28,0.01
2014-3-16,12,4,-4,3,-6,-11,85,63,43,30.54,30.29,18,6,18,0.00
2014-3-17,21,9,-10,12,3,-14,87,75,64,30.29,30.03,19,5,19,0.00
2014-3-18,29,21,13,24,17,9,86,82,72,30.11,30.01,25,9,25,0.00
2014-3-19,31,28,26,30,25,19,98,88,71,30.03,29.56,34,12,34,0.00
2014-3-20,31,26,19,30,23,14,97,87,77,30.01,29.60,30,16,30,0.00
2014-3-21,35,23,10,24,18,8,95,80,56,30.07,29.84,13,2,13,0.00
2014-3-22,27,18,8,25,15,4,96,86,76,30.29,29.79,36,15,36,0.00
2014-3-23,17,9,0,6,2,-2,89,73,50,30.37,30.29,25,10,25,0.00
2014-3-24,20,11,0,15,6,-3,91,79,57,30.34,30.00,35,8,35,0.00
2014-3-25,17,8,-2,12,3,-5,93,78,58,30.16,29.89,32,10,34,0.00
2014-3-26,24,12,0,11,4,-4,86,70,47,30.28,30.12,31,5,31,0.00
2014-3-27,35,28,18,33,26,10,97,91,69,30.12,29.60,24,5,24,0.02
2014-3-28,36,33,27,32,30,24,98,90,74,30.24,29.48,21,6,21,0.11
2014-3-29,40,30,20,24,21,16,95,72,41,30.34,30.23,18,3,18,0.00
2014-3-30,42,29,13,22,17,8,94,64,32,30.27,30.09,15,2,15,0.00
2014-3-31,45,35,24,28,21,13,80,59,41,30.18,29.94,28,7,28,0.00
2014-4-1,43,36,25,35,30,21,96,81,45,29.95,29.60,36,14,36,0.99
2014-4-2,34,26,20,24,19,14,89,76,60,30.28,29.88,36,15,36,0.00
2014-4-3,38,28,16,28,20,15,94,74,52,30.32,30.03,21,4,21,0.00
2014-4-4,36,32,28,32,29,26,98,88,72,29.98,29.25,37,7,37,0.18
2014-4-5,32,25,18,27,20,15,96,83,60,30.10,29.50,20,3,20,0.00
2014-4-6,49,37,25,33,28,21,92,72,50,30.09,29.95,14,4,14,0.00
2014-4-7,53,41,30,34,30,24,94,67,34,29.98,29.59,16,3,16,0.00
2014-4-8,48,38,33,36,31,26,90,76,58,29.82,29.50,25,8,25,0.00
2014-4-9,46,36,28,30,27,25,90,72,48,29.91,29.68,22,6,22,0.00
2014-4-10,49,44,39,39,33,28,91,66,54,29.78,29.44,37,13,37,0.27
2014-4-11,50,41,31,33,28,24,86,63,39,29.98,29.78,18,5,18,0.00
2014-4-12,40,37,34,34,33,31,95,85,71,30.14,29.91,24,7,24,0.48
2014-4-13,43,38,35,42,37,34,99,97,94,29.92,29.68,28,8,28,0.98
2014-4-14,40,33,22,40,32,20,99,94,76,29.87,29.34,29,11,29,5.17
2014-4-15,22,19,16,20,13,7,94,77,57,30.21,29.85,36,13,36,0.00
2014-4-16,35,25,14,29,16,9,94,70,44,30.43,30.21,17,3,17,0.00
2014-4-17,41,33,27,31,28,26,96,82,59,30.45,30.21,32,10,32,0.00
2014-4-18,36,33,31,31,30,28,93,88,78,30.41,30.20,21,9,21,0.00
2014-4-19,42,35,27,31,27,23,96,75,52,30.53,30.32,21,3,21,0.01
2014-4-20,43,37,32,41,35,24,97,91,69,30.37,30.05,22,3,22,0.37
2014-4-21,48,40,35,46,40,34,98,97,90,30.05,29.69,16,2,16,1.52
2014-4-22,43,37,34,38,33,28,99,85,70,29.95,29.67,26,12,26,0.00
2014-4-23,43,36,30,30,23,12,79,59,31,30.12,29.94,24,8,24,0.00
2014-4-24,51,39,29,29,25,19,88,60,33,30.17,29.97,14,3,17,0.00
2014-4-25,42,39,34,35,29,23,96,69,55,29.97,29.70,28,7,28,0.09
2014-4-26,43,37,32,35,31,27,98,82,56,30.17,29.75,18,5,18,0.32
2014-4-27,52,40,30,30,25,24,81,58,34,30.28,30.16,18,4,18,0.01
2014-4-28,53,43,33,29,26,21,75,53,34,30.26,29.99,33,11,33,0.00
2014-4-29,44,41,38,40,36,28,98,83,53,30.00,29.72,40,14,40,3.60
2014-4-30,44,39,37,44,39,36,99,99,98,29.85,29.75,29,10,29,1.16
2014-5-1,45,40,37,42,39,36,99,97,88,29.75,29.62,15,4,15,0.62
2014-5-2,43,39,36,42,38,36,99,96,90,29.67,29.57,18,7,18,0.41
2014-5-3,45,40,37,43,39,36,99,97,93,29.72,29.58,20,5,20,0.08
2014-5-4,45,40,36,38,36,34,96,87,73,30.05,29.71,21,12,21,0.00
2014-5-5,48,40,31,37,34,30,98,80,58,30.10,30.00,15,3,15,0.00
2014-5-6,51,42,34,33,30,26,88,64,41,30.16,30.04,17,3,17,0.00
2014-5-7,52,43,36,34,32,28,79,64,47,30.20,30.05,25,8,25,0.00
2014-5-8,59,46,40,46,38,32,93,74,60,30.12,29.82,43,8,43,0.47
2014-5-9,62,50,41,61,48,40,99,93,79,29.83,29.49,29,9,29,0.88
2014-5-10,52,47,43,45,41,39,92,80,68,29.90,29.59,29,11,29,0.00
2014-5-11,66,52,42,47,41,36,86,66,46,30.00,29.89,21,4,21,0.00
2014-5-12,51,47,45,42,40,38,83,75,65,30.06,29.93,30,10,30,0.00
2014-5-13,57,46,43,55,45,41,99,96,83,30.01,29.78,28,8,28,1.52
2014-5-14,54,47,41,44,40,34,94,76,54,30.16,30.01,12,5,14,0.00
2014-5-15,47,41,38,41,38,34,98,90,63,30.10,29.69,35,6,35,1.56
2014-5-16,43,38,34,38,34,30,98,85,65,30.02,29.83,23,13,23,0.00
2014-5-17,48,38,31,37,32,29,93,80,52,30.06,29.99,19,6,19,0.00
2014-5-18,62,50,37,40,38,35,94,66,41,30.11,30.06,21,4,21,0.00
2014-5-19,67,53,44,46,41,37,87,67,38,30.17,30.07,19,3,19,0.00
2014-5-20,52,49,47,48,45,40,96,86,72,30.10,29.89,28,3,28,0.18
2014-5-21,63,50,44,54,48,42,97,90,72,29.90,29.79,16,3,16,0.02
2014-5-22,51,47,43,48,44,41,97,91,83,30.02,29.84,26,14,26,0.00
2014-5-23,66,54,44,48,44,41,97,73,41,30.11,30.00,22,10,22,0.05
2014-5-24,72,60,48,50,44,35,87,59,27,30.18,30.06,16,6,16,0.00
2014-5-25,76,64,53,52,47,40,78,55,41,30.07,29.93,23,8,23,0.00
2014-5-26,73,64,55,63,52,39,90,66,44,29.94,29.80,21,9,21,0.00
2014-5-27,72,62,54,61,54,46,98,80,49,29.93,29.78,20,7,20,0.00
2014-5-28,68,58,49,53,48,44,86,72,56,30.12,29.93,18,4,20,0.00
2014-5-29,72,60,51,55,52,48,91,75,44,30.19,30.07,12,4,12,0.00
2014-5-30,75,62,51,59,52,47,89,71,52,30.19,30.09,23,4,23,0.00
2014-5-31,73,63,51,54,46,37,92,57,29,30.25,30.10,25,5,25,0.00
2014-6-1,76,65,56,56,48,38,84,56,40,30.11,29.83,22,4,22,0.00
2014-6-2,76,65,55,67,60,52,98,85,71,29.86,29.57,45,4,45,1.43
2014-6-3,64,58,52,62,55,49,98,89,76,29.79,29.54,36,11,36,0.03
2014-6-4,64,57,51,50,48,44,90,73,53,29.86,29.77,23,12,23,0.00
2014-6-5,68,58,50,48,43,32,85,59,28,29.93,29.86,23,8,23,0.00
2014-6-6,72,62,54,54,46,33,77,57,38,29.97,29.90,13,3,13,0.00
2014-6-7,76,64,54,58,51,46,91,64,39,30.01,29.85,18,2,18,0.00
2014-6-8,71,62,55,57,52,43,91,72,44,30.00,29.84,18,7,18,0.00
2014-6-9,70,61,49,58,49,43,94,66,41,30.07,29.95,18,4,18,0.00
2014-6-10,75,65,55,58,51,42,91,63,33,29.99,29.91,11,2,11,0.00
2014-6-11,67,62,58,60,57,50,98,83,60,29.92,29.71,21,4,21,0.34
2014-6-12,70,62,57,63,60,56,99,93,77,29.71,29.61,20,4,20,0.31
2014-6-13,60,52,47,56,48,43,95,86,77,29.94,29.62,36,16,36,0.00
2014-6-14,65,54,46,52,47,43,93,79,63,30.11,29.94,19,6,19,0.00
2014-6-15,64,58,50,53,49,46,89,73,60,30.13,29.93,18,6,31,0.04
2014-6-16,76,67,53,60,56,48,91,69,50,29.95,29.86,17,6,20,0.04
2014-6-17,67,61,57,64,59,55,98,94,84,29.90,29.65,18,5,18,0.80
2014-6-18,72,63,54,62,59,54,99,87,67,30.09,29.89,16,4,16,0.00
2014-6-19,72,64,55,59,44,33,97,53,27,30.24,30.09,19,5,19,0.01
2014-6-20,63,58,51,55,50,38,95,77,49,30.16,29.99,17,3,17,0.00
2014-6-21,71,63,57,56,52,45,91,68,41,30.01,29.90,11,2,11,0.00
2014-6-22,75,65,56,52,49,44,82,58,36,29.95,29.86,16,3,16,0.00
2014-6-23,72,64,58,63,56,48,93,78,63,29.88,29.82,22,2,22,0.00
2014-6-24,70,63,59,65,60,56,96,89,73,29.93,29.80,18,3,18,1.33
2014-6-25,68,60,56,59,54,48,94,80,64,30.02,29.92,12,4,12,0.09
2014-6-26,77,67,58,57,52,42,90,62,29,30.07,30.00,9,2,17,0.00
2014-6-27,77,70,58,56,47,37,87,45,29,30.09,30.02,17,3,17,0.00
2014-6-28,81,70,59,64,58,45,86,66,48,30.08,29.94,25,5,25,0.00
2014-6-29,78,70,63,71,66,59,97,86,76,29.96,29.73,29,5,29,0.91
2014-6-30,82,73,66,70,66,62,95,81,63,29.77,29.50,50,6,50,0.63
2014-7-1,73,70,66,68,64,62,95,80,70,29.56,29.40,36,14,36,0.03
2014-7-2,68,60,54,62,53,43,95,79,59,29.90,29.55,29,14,29,0.00
2014-7-3,66,58,53,57,51,42,90,78,64,30.11,29.89,17,4,17,0.00
2014-7-4,72,62,54,55,49,44,91,64,39,30.22,30.11,19,8,19,0.00
2014-7-5,73,65,56,58,53,49,84,67,51,30.18,29.90,29,7,29,0.00
2014-7-6,67,64,60,64,60,54,97,85,65,29.91,29.52,23,5,23,0.05
2014-7-7,72,67,62,67,62,58,98,85,66,29.55,29.44,26,9,26,0.00
2014-7-8,65,58,53,61,55,49,97,90,81,29.66,29.43,30,10,30,0.45
2014-7-9,63,55,51,56,51,47,93,85,68,30.00,29.66,22,10,22,0.00
2014-7-10,69,62,52,54,49,45,92,64,45,30.16,30.00,15,5,15,0.00
2014-7-11,73,63,54,60,55,48,90,74,53,30.17,30.05,19,3,19,0.00
2014-7-12,75,67,59,67,62,56,97,83,71,30.06,29.75,14,3,14,0.00
2014-7-13,68,64,58,66,58,48,99,82,57,29.82,29.63,28,10,28,0.13
2014-7-14,74,63,55,59,54,49,90,74,45,29.81,29.73,18,6,18,0.00
2014-7-15,63,57,55,59,55,53,98,94,76,29.77,29.67,16,5,21,4.24
2014-7-16,66,60,54,54,51,46,92,73,49,29.90,29.77,24,11,24,0.00
2014-7-17,71,62,53,56,51,48,90,70,44,30.04,29.90,18,8,18,0.00
2014-7-18,75,65,56,59,55,50,88,70,49,30.14,30.04,16,4,16,0.00
2014-7-19,76,67,59,61,56,49,87,68,40,30.10,30.00,21,4,21,0.00
2014-7-20,76,66,59,64,60,54,96,81,62,30.02,29.96,17,3,21,0.00
2014-7-21,79,70,61,68,63,59,96,81,65,30.01,29.96,20,3,20,0.00
2014-7-22,80,70,60,72,65,56,95,85,69,29.98,29.73,30,9,30,0.04
2014-7-23,70,62,57,57,54,48,94,75,48,30.08,29.85,23,10,23,0.00
2014-7-24,70,62,55,58,54,50,88,77,54,30.10,29.96,16,7,16,0.00
2014-7-25,73,64,55,62,56,52,94,76,63,29.96,29.80,23,8,23,0.00
2014-7-26,71,65,61,65,62,58,98,89,79,29.81,29.65,24,4,24,0.99
2014-7-27,70,65,60,64,61,54,99,88,72,29.79,29.62,23,6,23,0.04
2014-7-28,64,58,51,54,49,45,83,73,56,29.94,29.79,22,8,22,0.00
2014-7-29,67,60,56,58,54,51,94,82,63,29.90,29.83,20,9,20,0.00
2014-7-30,65,58,52,55,53,50,97,83,64,29.95,29.88,19,6,19,0.00
2014-7-31,68,62,57,61,57,54,95,85,66,29.94,29.86,20,6,20,0.01
2014-8-1,72,64,57,60,58,53,98,80,58,30.08,29.93,9,2,10,0.00
2014-8-2,76,67,58,61,57,54,94,72,50,30.13,30.04,9,2,9,0.00
2014-8-3,76,68,58,66,61,54,96,79,62,30.07,29.97,16,2,16,0.00
2014-8-4,73,66,57,63,60,56,98,83,63,30.04,29.97,14,5,14,0.00
2014-8-5,75,67,58,61,57,52,93,73,47,30.06,29.98,14,5,14,0.00
2014-8-6,74,66,60,61,57,53,87,73,58,30.02,29.96,22,7,22,0.00
2014-8-7,76,67,61,63,59,57,92,76,54,30.11,30.01,13,2,13,0.00
2014-8-8,76,68,61,64,60,56,96,76,52,30.14,30.05,13,2,13,0.00
2014-8-9,80,70,63,64,61,56,93,73,47,30.14,30.06,11,2,11,0.00
2014-8-10,78,70,62,64,60,56,91,73,49,30.11,29.98,13,2,13,0.00
2014-8-11,76,68,61,68,64,58,96,86,70,30.00,29.73,22,4,22,1.47
2014-8-12,66,62,56,66,60,55,98,95,91,29.74,29.55,30,13,30,9.15
2014-8-13,64,59,54,58,52,46,96,78,66,29.97,29.68,33,18,33,0.00
2014-8-14,60,56,53,50,47,40,82,72,53,29.97,29.90,34,16,34,0.00
2014-8-15,69,61,54,57,52,47,86,73,53,29.92,29.79,23,11,23,0.00
2014-8-16,68,63,57,63,59,54,97,88,78,29.88,29.65,21,7,21,0.23
2014-8-17,67,60,55,59,56,54,95,85,74,30.03,29.88,13,3,13,0.00
2014-8-18,67,60,53,59,56,52,97,88,74,29.98,29.80,17,3,17,0.00
2014-8-19,65,60,55,63,58,53,98,96,89,29.80,29.67,26,6,26,0.61
2014-8-20,66,63,59,66,62,58,99,98,96,29.88,29.69,14,2,15,0.05
2014-8-21,73,65,61,67,64,61,100,94,83,29.96,29.88,12,2,12,0.00
2014-8-22,78,68,59,69,64,58,99,89,67,30.01,29.92,11,2,11,0.01
2014-8-23,77,67,60,68,64,60,99,91,73,30.09,30.00,16,3,16,0.01
2014-8-24,74,66,62,67,63,61,99,92,75,30.12,30.05,20,4,22,0.01
2014-8-25,76,68,62,71,65,61,97,93,85,30.05,29.87,21,4,21,0.01
2014-8-26,70,65,57,69,60,52,98,82,67,30.04,29.87,22,10,22,0.00
2014-8-27,63,58,55,55,52,46,93,79,58,30.11,30.03,29,12,29,0.01
2014-8-28,65,59,53,53,51,46,94,76,57,30.16,30.07,12,4,13,0.00
2014-8-29,64,59,54,62,57,51,98,93,87,30.09,29.86,24,3,26,1.07
2014-8-30,76,67,63,72,66,62,98,95,83,29.89,29.67,22,3,22,0.62
2014-8-31,68,64,58,66,62,57,99,94,85,29.87,29.70,19,6,19,0.00
2014-9-1,76,66,58,71,64,57,99,94,83,29.87,29.55,24,5,24,0.51
2014-9-2,70,66,61,64,61,59,98,85,72,29.83,29.66,19,7,21,0.01
2014-9-3,74,67,58,63,60,56,97,80,60,29.92,29.81,18,7,18,0.00
2014-9-4,71,67,63,66,63,61,96,88,79,29.93,29.64,18,3,38,0.09
2014-9-5,69,63,59,68,58,53,98,84,76,29.91,29.70,28,16,39,0.41
2014-9-6,66,60,56,56,53,48,94,79,59,30.07,29.90,30,12,30,0.00
2014-9-7,72,64,50,58,54,47,94,69,54,30.11,30.05,25,8,25,0.00
2014-9-8,73,64,56,60,57,53,96,77,58,30.13,30.00,22,4,22,0.00
2014-9-9,75,66,59,63,60,57,96,81,60,30.00,29.87,17,3,18,0.00
2014-9-10,66,63,49,65,62,44,99,98,95,29.90,29.31,26,5,26,2.71
2014-9-11,53,49,44,48,43,38,97,80,67,30.25,29.42,25,11,28,0.03
2014-9-12,52,47,41,41,38,36,90,72,58,30.36,30.22,12,2,15,0.00
2014-9-13,54,48,44,44,42,39,95,83,61,30.28,30.19,20,4,20,0.82
2014-9-14,57,51,44,50,44,39,86,77,58,30.29,30.03,27,5,28,0.00
2014-9-15,58,54,50,52,47,42,96,79,57,30.05,30.00,20,9,21,0.03
2014-9-16,59,54,45,51,46,39,94,75,49,30.07,29.94,28,12,30,0.00
2014-9-17,60,52,42,55,48,38,93,86,76,30.07,29.85,17,5,17,0.00
2014-9-18,51,45,41,40,37,34,88,74,54,30.24,30.06,18,3,18,0.00
2014-9-19,59,52,40,53,46,37,93,80,73,30.24,29.78,31,6,34,0.06
2014-9-20,67,60,55,64,58,52,97,93,88,29.82,29.56,30,9,32,0.76
2014-9-21,56,51,46,55,46,38,98,84,68,30.00,29.55,27,8,27,0.30
2014-9-22,58,50,44,54,45,38,93,81,69,30.11,30.00,19,9,21,0.00
2014-9-23,70,60,53,60,56,51,95,86,69,30.30,30.08,18,6,18,0.00
2014-9-24,70,59,51,60,55,50,99,87,64,30.39,30.30,18,2,20,0.01
2014-9-25,70,59,52,61,54,51,98,85,61,30.32,30.23,12,2,14,0.00
2014-9-26,72,60,51,61,56,51,99,89,63,30.28,30.22,7,1,8,0.02
2014-9-27,73,61,53,61,56,52,99,85,57,30.28,30.14,12,2,12,0.01
2014-9-28,75,64,55,65,58,54,98,84,64,30.15,29.97,11,2,13,0.00
2014-9-29,62,53,44,58,51,41,98,95,85,29.98,29.87,22,6,23,1.42
2014-9-30,56,49,43,51,45,40,93,87,78,30.06,29.97,14,4,15,0.01
2014-10-1,58,54,51,57,53,50,99,95,88,30.08,29.98,19,3,22,0.00
2014-10-2,59,58,56,58,57,55,98,97,95,30.00,29.66,23,5,24,0.64
2014-10-3,60,57,52,60,56,50,99,95,90,29.70,29.11,47,12,50,1.75
2014-10-4,53,46,41,52,44,37,98,91,82,29.48,29.37,22,10,24,2.00
2014-10-5,47,44,41,43,39,36,95,83,67,29.56,29.45,33,12,35,0.19
2014-10-6,55,48,41,47,42,38,97,82,55,29.56,29.49,23,5,27,0.24
2014-10-7,57,50,44,49,45,38,92,83,55,29.62,29.47,39,9,39,0.07
2014-10-8,46,44,42,45,39,35,94,84,68,29.84,29.58,34,16,39,0.06
2014-10-9,48,45,43,40,39,36,88,79,68,30.03,29.79,37,20,37,0.00
2014-10-10,46,44,42,41,39,37,89,82,72,30.14,30.02,26,14,26,0.00
2014-10-11,50,44,40,41,39,37,94,83,65,30.21,30.13,15,6,15,0.00
2014-10-12,56,48,41,44,41,37,95,78,50,30.15,30.00,21,5,22,0.00
2014-10-13,55,50,44,53,49,42,99,96,87,30.01,29.69,21,3,21,4.63
2014-10-14,62,57,51,61,57,50,99,98,96,29.75,29.57,35,7,35,5.26
2014-10-15,54,52,50,52,51,49,98,95,90,29.85,29.68,34,6,34,2.02
2014-10-16,55,51,49,51,49,48,98,94,82,29.81,29.55,17,4,17,0.00
2014-10-17,52,49,43,50,47,40,99,94,87,29.60,29.35,23,7,25,0.23
2014-10-18,44,40,34,41,33,27,94,77,57,30.12,29.58,30,11,30,0.06
2014-10-19,46,39,33,43,34,27,92,81,74,30.13,29.78,20,2,20,0.06
2014-10-20,50,48,44,48,45,39,95,92,84,29.93,29.69,25,6,25,0.03
2014-10-21,45,41,36,40,33,30,84,73,58,30.33,29.92,22,7,25,0.00
2014-10-22,50,41,35,38,33,25,92,75,38,30.41,30.27,11,2,21,0.00
2014-10-23,50,43,37,42,39,34,96,85,71,30.28,30.03,12,1,12,0.00
2014-10-24,52,48,40,49,46,39,98,93,89,30.05,29.77,11,2,11,0.00
2014-10-25,56,52,48,51,44,38,96,77,58,29.80,29.57,40,19,40,0.05
2014-10-26,49,45,40,41,38,35,84,76,66,29.91,29.63,33,17,35,0.00
2014-10-27,47,42,37,45,40,34,97,92,83,29.96,29.64,34,4,34,1.86
2014-10-28,56,50,46,54,47,41,98,91,74,29.67,29.44,36,14,38,0.02
2014-10-29,49,43,39,43,38,34,89,81,75,30.03,29.66,26,16,27,0.02
2014-10-30,43,40,38,40,37,34,97,88,73,30.07,29.88,13,4,14,0.42
2014-10-31,41,33,28,40,27,18,97,81,64,30.38,29.87,38,12,38,0.53
2014-11-1,36,30,25,27,22,18,85,72,50,30.45,30.34,18,6,18,0.00
2014-11-2,46,38,30,39,33,25,93,84,61,30.36,30.09,22,6,22,0.00
2014-11-3,50,46,41,43,37,32,91,71,59,30.09,29.85,19,5,19,0.02
2014-11-4,52,46,41,51,44,35,98,93,77,29.85,29.59,31,11,31,0.39
2014-11-5,42,40,38,37,34,31,93,79,65,30.02,29.75,31,13,31,0.07
2014-11-6,39,36,32,36,32,24,96,86,69,30.04,29.91,21,6,21,0.40
2014-11-7,38,32,29,30,24,21,81,74,67,30.09,29.82,21,4,21,0.00
2014-11-8,39,35,29,37,31,23,96,87,66,29.82,29.52,40,17,40,0.43
2014-11-9,35,32,26,33,28,22,96,86,76,29.85,29.62,32,10,34,0.04
2014-11-10,34,30,26,32,28,22,97,90,77,30.01,29.78,33,7,33,0.06
2014-11-11,32,31,26,32,30,23,97,95,88,29.80,29.58,28,9,28,0.28
2014-11-12,30,27,23,25,22,20,92,82,71,30.04,29.70,40,16,40,0.00
2014-11-13,29,28,26,28,25,22,96,89,78,30.07,30.01,28,13,35,0.00
2014-11-14,30,28,26,22,20,14,83,72,55,30.21,30.07,26,11,26,0.00
2014-11-15,30,27,25,26,21,16,95,78,67,30.22,30.11,30,13,30,0.01
2014-11-16,31,26,22,27,21,14,94,83,64,30.11,29.77,23,6,23,0.00
2014-11-17,32,27,20,28,21,13,89,78,62,29.78,29.45,34,15,34,0.00
2014-11-18,25,22,17,21,17,9,93,82,70,29.86,29.39,45,23,45,0.00
2014-11-19,25,20,16,23,17,9,95,86,70,29.87,29.48,38,9,38,0.00
2014-11-20,23,21,18,20,17,11,93,83,74,30.08,29.53,46,20,46,0.01
2014-11-21,29,22,15,23,16,11,88,79,66,30.32,30.05,33,12,33,0.00
2014-11-22,38,36,28,38,33,22,98,89,77,30.05,29.73,41,10,41,0.30
2014-11-23,45,42,37,45,41,36,99,99,98,29.82,29.31,22,4,25,0.91
2014-11-24,44,40,32,44,40,32,99,98,97,29.32,28.85,30,11,30,5.71
2014-11-25,32,26,24,32,24,18,98,92,68,30.15,29.32,21,7,21,0.00
2014-11-26,29,27,26,27,24,19,97,88,72,30.20,30.12,14,1,16,0.00
2014-11-27,26,20,8,25,16,4,96,85,73,30.30,30.11,29,10,29,0.01
2014-11-28,26,15,6,23,12,3,94,90,86,30.32,30.04,15,2,15,0.00
2014-11-29,39,32,26,36,30,23,94,91,88,30.05,29.50,30,5,30,0.00
2014-11-30,41,34,25,40,30,18,98,87,70,30.10,29.49,34,14,34,0.00
2014-12-1,25,17,12,19,12,6,89,78,70,30.68,30.10,41,19,41,0.00
2014-12-2,30,24,13,26,19,8,91,82,76,30.66,29.88,32,6,32,0.01
2014-12-3,31,26,21,28,20,14,91,79,66,30.18,29.82,49,21,49,0.01
2014-12-4,27,21,15,19,15,11,92,78,57,30.45,30.17,30,4,34,0.00
2014-12-5,34,31,27,31,25,19,92,79,72,30.37,30.18,20,3,20,0.00
2014-12-6,33,29,23,32,23,13,97,78,49,30.69,30.23,21,9,21,0.00
2014-12-7,35,27,19,27,20,13,84,76,66,30.76,30.40,22,4,24,0.00
2014-12-8,36,34,32,32,29,27,98,84,73,30.41,30.02,29,7,33,0.02
2014-12-9,34,28,15,33,25,11,98,91,83,30.43,30.04,22,5,23,0.08
2014-12-10,24,18,11,18,13,9,90,81,69,30.46,30.18,15,4,15,0.00
2014-12-11,35,27,18,33,20,5,95,74,41,30.18,30.00,28,10,28,0.00
2014-12-12,35,33,30,34,32,29,98,97,95,30.13,30.05,18,10,20,0.00
2014-12-13,35,34,32,34,33,31,99,98,96,30.10,29.90,23,11,25,0.00
2014-12-14,38,36,34,37,36,33,99,99,98,30.03,29.91,15,6,15,0.00
2014-12-15,41,38,36,40,38,36,99,99,99,30.01,29.80,20,2,20,0.02
2014-12-16,43,38,32,43,38,32,100,99,99,29.81,29.71,17,3,24,0.98